| time (UTC) | temp F | wind direction | speed knots | gust knots | rain 1hr in | rain 24hr in | rain mn in | humidity % | barometer mb |
| 20260505025022 | 69 | 46 | 3.5 | 9.6 | 0.00 | 0.00 | 0.00 | 50 | 1000.3 |
| 20260505024533 | 69 | 50 | 5.2 | 9.6 | 0.00 | 0.00 | 0.00 | 49 | 1000.3 |
| 20260505024024 | 70 | 9 | 1.7 | 8.7 | 0.00 | 0.00 | 0.00 | 50 | 1000.3 |
| 20260505023522 | 70 | 40 | 4.3 | 9.6 | 0.00 | 0.00 | 0.00 | 47 | 1000.1 |
| 20260505023031 | 71 | 114 | 4.3 | 9.6 | 0.00 | 0.00 | 0.00 | 46 | 1000.0 |
| 20260505022520 | 71 | 128 | 5.2 | 9.6 | 0.00 | 0.00 | 0.00 | 46 | 999.9 |
| 20260505022031 | 71 | 108 | 5.2 | 10.4 | 0.00 | 0.00 | 0.00 | 46 | 1000.0 |
| 20260505021533 | 71 | 121 | 5.2 | 10.4 | 0.00 | 0.00 | 0.00 | 47 | 1000.0 |
| 20260505021024 | 71 | 107 | 5.2 | 9.6 | 0.00 | 0.00 | 0.00 | 47 | 1000.0 |
| 20260505020534 | 71 | 146 | 5.2 | 8.7 | 0.00 | 0.00 | 0.00 | 47 | 1000.0 |
| 20260505020105 | 72 | 101 | 6.1 | 8.7 | 0.00 | 0.00 | 0.00 | 46 | 1000.0 |
| 20260505015525 | 72 | 101 | 6.1 | 7.8 | 0.00 | 0.00 | 0.00 | 46 | 999.8 |
| 20260505015036 | 72 | 93 | 3.5 | 10.4 | 0.00 | 0.00 | 0.00 | 45 | 999.8 |
| 20260505014518 | 73 | 88 | 6.1 | 12.2 | 0.00 | 0.00 | 0.00 | 45 | 999.6 |
| 20260505014030 | 73 | 110 | 7.8 | 12.2 | 0.00 | 0.00 | 0.00 | 44 | 999.6 |
| 20260505013540 | 73 | 89 | 7.0 | 11.3 | 0.00 | 0.00 | 0.00 | 43 | 999.4 |
| 20260505013020 | 74 | 91 | 7.0 | 12.2 | 0.00 | 0.00 | 0.00 | 42 | 999.4 |
| 20260505012531 | 74 | 92 | 7.8 | 12.2 | 0.00 | 0.00 | 0.00 | 42 | 999.4 |
| 20260505012041 | 74 | 114 | 7.0 | 12.2 | 0.00 | 0.00 | 0.00 | 42 | 999.4 |
| 20260505011524 | 75 | 97 | 7.0 | 12.2 | 0.00 | 0.00 | 0.00 | 41 | 999.5 |
| 20260505011028 | 75 | 97 | 7.0 | 11.3 | 0.00 | 0.00 | 0.00 | 40 | 999.5 |
| 20260505010600 | 75 | 113 | 7.0 | 11.3 | 0.00 | 0.00 | 0.00 | 39 | 999.6 |
| 20260505010019 | 76 | 81 | 7.0 | 11.3 | 0.00 | 0.00 | 0.00 | 40 | 999.5 |
| 20260505005530 | 76 | 103 | 5.2 | 7.8 | 0.00 | 0.00 | 0.00 | 39 | 999.5 |
| 20260505005022 | 77 | 67 | 1.7 | 7.0 | 0.00 | 0.00 | 0.00 | 39 | 999.6 |
| 20260505004523 | 77 | 99 | 4.3 | 7.0 | 0.00 | 0.00 | 0.00 | 38 | 999.7 |
| 20260505004033 | 77 | 81 | 4.3 | 7.0 | 0.00 | 0.00 | 0.00 | 37 | 999.8 |
| 20260505003544 | 78 | 107 | 4.3 | 7.0 | 0.00 | 0.00 | 0.00 | 37 | 999.9 |
| 20260505003032 | 78 | 113 | 4.3 | 7.0 | 0.00 | 0.00 | 0.00 | 38 | 1000.0 |
| 20260505002534 | 78 | 190 | 1.7 | 6.1 | 0.00 | 0.00 | 0.00 | 37 | 1000.0 |
| 20260505002025 | 79 | 60 | 2.6 | 10.4 | 0.00 | 0.00 | 0.00 | 36 | 999.9 |
| 20260505001528 | 79 | 33 | 7.0 | 10.4 | 0.00 | 0.00 | 0.00 | 33 | 999.9 |
| 20260505001018 | 78 | 84 | 5.2 | 9.6 | 0.00 | 0.00 | 0.00 | 32 | 999.9 |
| 20260505000529 | 78 | 53 | 3.5 | 8.7 | 0.00 | 0.00 | 0.00 | 33 | 999.9 |
| 20260505000033 | 78 | 15 | 3.5 | 10.4 | 0.00 | 0.00 | 0.00 | 35 | 999.8 |
| 20260504235531 | 78 | 38 | 5.2 | 10.4 | 0.00 | 0.00 | 0.00 | 35 | 1000.0 |
| 20260504235022 | 78 | 36 | 6.1 | 13.0 | 0.00 | 0.00 | 0.00 | 36 | 1000.0 |
| 20260504234533 | 79 | 32 | 7.8 | 13.0 | 0.00 | 0.00 | 0.00 | 35 | 1000.0 |
| 20260504234035 | 78 | 20 | 7.0 | 10.4 | 0.00 | 0.00 | 0.00 | 35 | 1000.0 |
| 20260504233546 | 79 | 46 | 6.1 | 11.3 | 0.00 | 0.00 | 0.00 | 34 | 1000.2 |
| 20260504233034 | 79 | 26 | 7.8 | 17.4 | 0.00 | 0.00 | 0.00 | 35 | 1000.3 |
| 20260504232545 | 80 | 26 | 8.7 | 17.4 | 0.00 | 0.00 | 0.00 | 34 | 1000.2 |
| 20260504232027 | 81 | 55 | 7.8 | 15.6 | 0.00 | 0.00 | 0.00 | 31 | 1000.0 |
| 20260504231538 | 81 | 25 | 8.7 | 13.9 | 0.00 | 0.00 | 0.00 | 30 | 1000.0 |
| 20260504231048 | 81 | 355 | 8.7 | 17.4 | 0.00 | 0.00 | 0.00 | 31 | 999.9 |
| 20260504230529 | 82 | 42 | 7.8 | 17.4 | 0.00 | 0.00 | 0.00 | 28 | 999.8 |
| 20260504230038 | 82 | 23 | 9.6 | 14.8 | 0.00 | 0.00 | 0.00 | 30 | 999.8 |
| 20260504225529 | 82 | 177 | 2.6 | 6.1 | 0.00 | 0.00 | 0.00 | 31 | 999.8 |
| 20260504225101 | 81 | 100 | 0.9 | 4.3 | 0.00 | 0.00 | 0.00 | 31 | 999.8 |
| 20260504224522 | 81 | 245 | 0.9 | 5.2 | 0.00 | 0.00 | 0.00 | 32 | 1000.0 |
| 20260504224032 | 81 | 333 | 3.5 | 7.8 | 0.00 | 0.00 | 0.00 | 31 | 1000.1 |
| 20260504223540 | 81 | 313 | 2.6 | 13.0 | 0.00 | 0.00 | 0.00 | 29 | 1000.2 |
| 20260504223040 | 81 | 327 | 7.8 | 15.6 | 0.00 | 0.00 | 0.00 | 31 | 1000.1 |
| 20260504222531 | 82 | 36 | 4.3 | 15.6 | 0.00 | 0.00 | 0.00 | 30 | 1000.6 |
| 20260504222041 | 83 | 97 | 5.2 | 9.6 | 0.00 | 0.00 | 0.00 | 26 | 1000.5 |
| 20260504221523 | 83 | 146 | 6.1 | 9.6 | 0.00 | 0.00 | 0.00 | 28 | 1000.3 |
| 20260504221034 | 83 | 114 | 3.5 | 8.7 | 0.00 | 0.00 | 0.00 | 28 | 1000.1 |
| 20260504220545 | 84 | 111 | 5.2 | 8.7 | 0.00 | 0.00 | 0.00 | 27 | 1000.0 |
| 20260504220025 | 84 | 217 | 2.6 | 8.7 | 0.00 | 0.00 | 0.00 | 28 | 1000.0 |
| 20260504215536 | 84 | 127 | 3.5 | 8.7 | 0.00 | 0.00 | 0.00 | 28 | 1000.1 |
| 20260504215025 | 84 | 131 | 2.6 | 11.3 | 0.00 | 0.00 | 0.00 | 28 | 1000.0 |
| 20260504214526 | 84 | 160 | 4.3 | 11.3 | 0.00 | 0.00 | 0.00 | 28 | 1000.1 |
| 20260504214037 | 85 | 101 | 5.2 | 11.3 | 0.00 | 0.00 | 0.00 | 25 | 1000.1 |
| 20260504213547 | 85 | 88 | 5.2 | 8.7 | 0.00 | 0.00 | 0.00 | 23 | 1000.1 |
| 20260504213035 | 85 | 101 | 2.6 | 7.8 | 0.00 | 0.00 | 0.00 | 25 | 1000.1 |
| 20260504212537 | 85 | 229 | 1.7 | 7.8 | 0.00 | 0.00 | 0.00 | 25 | 1000.1 |
| 20260504212027 | 85 | 99 | 2.6 | 9.6 | 0.00 | 0.00 | 0.00 | 24 | 1000.1 |
| 20260504211534 | 85 | 93 | 5.2 | 12.2 | 0.00 | 0.00 | 0.00 | 24 | 1000.1 |
| 20260504211036 | 85 | 107 | 7.0 | 12.2 | 0.00 | 0.00 | 0.00 | 24 | 1000.3 |
| 20260504210527 | 85 | 110 | 4.3 | 12.2 | 0.00 | 0.00 | 0.00 | 25 | 1000.3 |
| 20260504210025 | 85 | 96 | 3.5 | 13.0 | 0.00 | 0.00 | 0.00 | 23 | 1000.4 |
| 20260504205536 | 85 | 101 | 3.5 | 8.7 | 0.00 | 0.00 | 0.00 | 23 | 1000.4 |
| 20260504205047 | 85 | 269 | 3.5 | 7.8 | 0.00 | 0.00 | 0.00 | 22 | 1000.5 |
| 20260504204536 | 85 | 99 | 2.6 | 9.6 | 0.00 | 0.00 | 0.00 | 24 | 1000.6 |
| 20260504204018 | 85 | 103 | 5.2 | 9.6 | 0.00 | 0.00 | 0.00 | 24 | 1000.7 |
| 20260504203529 | 86 | 130 | 4.3 | 10.4 | 0.00 | 0.00 | 0.00 | 23 | 1000.7 |
| 20260504203038 | 86 | 108 | 5.2 | 10.4 | 0.00 | 0.00 | 0.00 | 25 | 1000.8 |
| 20260504202520 | 86 | 146 | 5.2 | 9.6 | 0.00 | 0.00 | 0.00 | 24 | 1001.0 |
| 20260504202031 | 86 | 90 | 4.3 | 11.3 | 0.00 | 0.00 | 0.00 | 26 | 1001.0 |
| 20260504201542 | 86 | 30 | 7.0 | 11.3 | 0.00 | 0.00 | 0.00 | 25 | 1001.0 |
| 20260504201024 | 85 | 61 | 3.5 | 10.4 | 0.00 | 0.00 | 0.00 | 25 | 1001.2 |
| 20260504200534 | 85 | 80 | 3.5 | 10.4 | 0.00 | 0.00 | 0.00 | 23 | 1001.3 |
| 20260504200022 | 85 | 50 | 3.5 | 13.0 | 0.00 | 0.00 | 0.00 | 27 | 1001.4 |
| 20260504195524 | 85 | 34 | 7.8 | 15.6 | 0.00 | 0.00 | 0.00 | 25 | 1001.4 |
| 20260504195031 | 85 | 48 | 5.2 | 15.6 | 0.00 | 0.00 | 0.00 | 26 | 1001.5 |
| 20260504194542 | 85 | 77 | 5.2 | 12.2 | 0.00 | 0.00 | 0.00 | 24 | 1001.5 |
| 20260504194024 | 85 | 76 | 5.2 | 13.9 | 0.00 | 0.00 | 0.00 | 27 | 1001.7 |
| 20260504193532 | 85 | 80 | 5.2 | 13.9 | 0.00 | 0.00 | 0.00 | 27 | 1001.7 |
| 20260504193041 | 84 | 65 | 4.3 | 10.4 | 0.00 | 0.00 | 0.00 | 26 | 1001.9 |
| 20260504192521 | 84 | 251 | 1.7 | 11.3 | 0.00 | 0.00 | 0.00 | 29 | 1001.9 |
| 20260504192032 | 83 | 11 | 5.2 | 11.3 | 0.00 | 0.00 | 0.00 | 31 | 1002.0 |
| 20260504191544 | 83 | 40 | 5.2 | 9.6 | 0.00 | 0.00 | 0.00 | 26 | 1002.0 |
| 20260504191033 | 83 | 38 | 4.3 | 10.4 | 0.00 | 0.00 | 0.00 | 28 | 1002.1 |
| 20260504190544 | 83 | 68 | 5.2 | 10.4 | 0.00 | 0.00 | 0.00 | 28 | 1002.2 |
| 20260504190024 | 82 | 36 | 6.1 | 11.3 | 0.00 | 0.00 | 0.00 | 26 | 1002.3 |
| 20260504185535 | 82 | 17 | 4.3 | 11.3 | 0.00 | 0.00 | 0.00 | 28 | 1002.4 |
| 20260504185017 | 82 | 68 | 3.5 | 11.3 | 0.00 | 0.00 | 0.00 | 27 | 1002.5 |
| 20260504184528 | 83 | 33 | 4.3 | 10.4 | 0.00 | 0.00 | 0.00 | 29 | 1002.5 |
| 20260504184039 | 83 | 101 | 3.5 | 10.4 | 0.00 | 0.00 | 0.00 | 28 | 1002.4 |
| 20260504183520 | 83 | 70 | 2.6 | 13.0 | 0.00 | 0.00 | 0.00 | 28 | 1002.5 |
| 20260504183029 | 83 | 50 | 7.0 | 13.0 | 0.00 | 0.00 | 0.00 | 30 | 1002.5 |
| 20260504182537 | 83 | 5 | 7.0 | 13.0 | 0.00 | 0.00 | 0.00 | 29 | 1002.5 |
| 20260504182018 | 83 | 10 | 7.8 | 13.0 | 0.00 | 0.00 | 0.00 | 28 | 1002.7 |
| 20260504181528 | 83 | 205 | 4.3 | 11.3 | 0.00 | 0.00 | 0.00 | 27 | 1002.6 |
| 20260504181029 | 83 | 23 | 5.2 | 12.2 | 0.00 | 0.00 | 0.00 | 28 | 1002.8 |
| 20260504180520 | 84 | 31 | 7.8 | 12.2 | 0.00 | 0.00 | 0.00 | 29 | 1002.9 |
| 20260504180029 | 84 | 51 | 7.0 | 12.2 | 0.00 | 0.00 | 0.00 | 28 | 1003.0 |
| 20260504175530 | 84 | 42 | 6.1 | 11.3 | 0.00 | 0.00 | 0.00 | 28 | 1002.9 |
| 20260504175020 | 84 | 40 | 3.5 | 11.3 | 0.00 | 0.00 | 0.00 | 28 | 1003.0 |
| 20260504174549 | 84 | 32 | 5.2 | 11.3 | 0.00 | 0.00 | 0.00 | 28 | 1003.0 |
| 20260504174039 | 84 | 128 | 5.2 | 12.2 | 0.00 | 0.00 | 0.00 | 27 | 1003.1 |
| 20260504173541 | 84 | 34 | 5.2 | 13.0 | 0.00 | 0.00 | 0.00 | 26 | 1003.1 |
| 20260504173029 | 85 | 5 | 7.0 | 13.0 | 0.00 | 0.00 | 0.00 | 25 | 1003.1 |
| 20260504172520 | 85 | 27 | 4.3 | 10.4 | 0.00 | 0.00 | 0.00 | 31 | 1003.1 |
| 20260504172021 | 85 | 42 | 3.5 | 10.4 | 0.00 | 0.00 | 0.00 | 24 | 1003.1 |
| 20260504171553 | 86 | 35 | 6.1 | 12.2 | 0.00 | 0.00 | 0.00 | 29 | 1003.1 |
| 20260504171023 | 86 | 34 | 6.1 | 12.2 | 0.00 | 0.00 | 0.00 | 26 | 1003.1 |
| 20260504170529 | 87 | 360 | 5.2 | 8.7 | 0.00 | 0.00 | 0.00 | 23 | 1003.1 |
| 20260504151058 | 77 | 292 | 1.7 | 4.3 | 0.00 | 0.00 | 0.00 | 42 | 1003.1 |
| 20260504150519 | 76 | 155 | 2.6 | 3.5 | 0.00 | 0.00 | 0.00 | 44 | 1003.1 |
| 20260504141023 | 65 | 198 | 4.3 | 7.8 | 0.00 | 0.00 | 0.00 | 53 | 1003.7 |
| 20260504140533 | 64 | 248 | 3.5 | 7.8 | 0.00 | 0.00 | 0.00 | 56 | 1003.7 |
| 20260504130535 | 54 | 244 | 1.7 | 6.1 | 0.00 | 0.00 | 0.00 | 65 | 1003.5 |
| 20260504110524 | 55 | 228 | 5.2 | 7.8 | 0.00 | 0.00 | 0.00 | 54 | 1003.3 |
| 20260504100528 | 58 | 194 | 3.5 | 7.8 | 0.00 | 0.00 | 0.00 | 49 | 1003.5 |
| 20260504081531 | 51 | 238 | 6.1 | 11.3 | 0.00 | 0.00 | 0.00 | 78 | 1004.5 |
| 20260504081042 | 51 | 228 | 7.0 | 11.3 | 0.00 | 0.00 | 0.00 | 77 | 1004.5 |
| 20260504080523 | 51 | 232 | 7.0 | 11.3 | 0.00 | 0.00 | 0.00 | 77 | 1004.5 |
| 20260504050600 | 65 | 194 | 4.3 | 8.7 | 0.00 | 0.00 | 0.00 | 36 | 1005.5 |
| 20260504045529 | 66 | 238 | 3.5 | 7.8 | 0.00 | 0.00 | 0.00 | 36 | 1005.6 |
| 20260504045030 | 66 | 236 | 4.3 | 8.7 | 0.00 | 0.00 | 0.00 | 36 | 1005.6 |
| 20260504044520 | 66 | 236 | 5.2 | 8.7 | 0.00 | 0.00 | 0.00 | 35 | 1005.6 |
| 20260504044030 | 67 | 241 | 4.3 | 8.7 | 0.00 | 0.00 | 0.00 | 35 | 1005.6 |
| 20260504043532 | 67 | 242 | 2.6 | 7.0 | 0.00 | 0.00 | 0.00 | 34 | 1005.7 |
| 20260504043021 | 67 | 271 | 2.6 | 7.0 | 0.00 | 0.00 | 0.00 | 35 | 1005.8 |
| 20260504042553 | 67 | 229 | 4.3 | 8.7 | 0.00 | 0.00 | 0.00 | 34 | 1005.7 |
| 20260504042042 | 67 | 232 | 3.5 | 8.7 | 0.00 | 0.00 | 0.00 | 34 | 1005.7 |
| 20260504041523 | 68 | 227 | 3.5 | 6.1 | 0.00 | 0.00 | 0.00 | 33 | 1005.8 |
| 20260504041030 | 68 | 221 | 1.7 | 5.2 | 0.00 | 0.00 | 0.00 | 34 | 1005.7 |
| 20260504040522 | 68 | 194 | 2.6 | 7.8 | 0.00 | 0.00 | 0.00 | 33 | 1005.7 |
| 20260504040051 | 68 | 207 | 1.7 | 7.8 | 0.00 | 0.00 | 0.00 | 33 | 1005.7 |
| 20260504035532 | 68 | 198 | 2.6 | 7.0 | 0.00 | 0.00 | 0.00 | 32 | 1005.6 |
| 20260504035023 | 69 | 183 | 4.3 | 7.0 | 0.00 | 0.00 | 0.00 | 32 | 1005.7 |
| 20260504034552 | 69 | 214 | 3.5 | 7.0 | 0.00 | 0.00 | 0.00 | 33 | 1005.7 |
| 20260504034041 | 69 | 227 | 3.5 | 7.0 | 0.00 | 0.00 | 0.00 | 32 | 1005.7 |
| 20260504033532 | 69 | 186 | 3.5 | 7.8 | 0.00 | 0.00 | 0.00 | 32 | 1005.6 |
| 20260504033031 | 69 | 215 | 3.5 | 6.1 | 0.00 | 0.00 | 0.00 | 31 | 1005.6 |
| 20260504032542 | 69 | 190 | 3.5 | 7.0 | 0.00 | 0.00 | 0.00 | 31 | 1005.7 |
| 20260504032032 | 70 | 194 | 3.5 | 8.7 | 0.00 | 0.00 | 0.00 | 30 | 1005.6 |
| 20260504031542 | 70 | 199 | 3.5 | 8.7 | 0.00 | 0.00 | 0.00 | 29 | 1005.6 |
| 20260504031022 | 71 | 167 | 4.3 | 6.1 | 0.00 | 0.00 | 0.00 | 29 | 1005.6 |
| 20260504030529 | 71 | 190 | 4.3 | 6.1 | 0.00 | 0.00 | 0.00 | 28 | 1005.6 |
| 20260504030037 | 72 | 165 | 2.6 | 5.2 | 0.00 | 0.00 | 0.00 | 27 | 1005.4 |
| 20260504025518 | 72 | 188 | 2.6 | 5.2 | 0.00 | 0.00 | 0.00 | 27 | 1005.5 |